Wind_Speed
14 14 14 15 14 15 15 16 16 15 15 16 17 17 18 18 19 19 19 19 19 20 20 20 21 22 22 21 21 21 20 15 9 7 8 10 8 5 4 6 8 9 12 12 11 12 9 6 6 7 7 6 6 7 10 11 11 10 4 3 5 4 5 6 7 6 3 2 2 3 6 3 3 2 2 1 6 8 7 10 10 11 14 13 9 8 6 7
14 14 14 14 14 15 14 15 16 15 16 16 16 17 17 18 19 19 19 20 20 20 20 20 20 21 22 21 21 21 19 14 7 5 6 8 7 4 4 6 8 10 11 12 10 9 8 6 4 4 5 4 4 6 8 9 10 7 2 3 7 5 6 7 8 7 4 3 1 1 5 5 4 4 1 1 1 4 5 7 10 11 13 14 12 9 8 8
14 14 15 14 14 15 14 15 15 15 15 16 16 17 17 18 19 20 20 19 19 19 20 20 20 20 21 21 21 20 19 12 5 4 4 6 6 3 3 6 8 9 11 11 9 7 7 7 5 2 4 4 4 6 6 7 7 4 2 4 6 4 4 8 10 9 8 5 1 2 4 5 4 5 2 1 2 1 5 8 9 12 15 16 14 11 10 10
15 15 16 15 15 15 15 15 15 16 15 16 16 17 17 18 19 21 21 20 19 19 19 20 20 20 21 21 21 20 17 9 3 4 5 6 5 4 5 6 7 8 10 9 7 6 7 6 4 2 4 3 3 5 4 8 6 2 4 3 4 5 4 7 12 12 10 5 4 4 6 5 3 5 2 1 1 2 8 11 11 15 16 15 15 13 12 13
15 15 16 17 16 16 15 15 15 16 16 16 16 17 17 17 19 21 23 22 19 19 19 20 20 21 21 21 22 20 13 5 2 4 6 7 6 5 6 6 7 9 10 9 7 6 6 5 2 2 4 2 2 4 2 6 6 2 3 2 4 6 3 3 7 12 11 8 7 6 6 4 3 3 1 1 2 5 6 8 10 14 16 14 14 14 14 15
16 17 18 18 18 16 15 15 16 16 17 17 17 17 17 17 19 20 22 23 21 19 18 19 20 20 21 21 21 18 9 2 4 6 6 9 9 7 7 6 8 8 8 7 5 4 4 4 0 1 2 2 2 2 1 3 3 3 3 3 4 3 2 2 1 4 7 6 6 5 5 4 2 4 5 4 7 8 7 9 10 10 12 14 14 14 15 15
17 18 19 20 20 17 15 15 15 16 17 18 17 17 17 18 19 20 21 23 22 19 18 19 19 20 21 21 20 16 10 6 8 9 9 10 11 9 7 6 6 7 6 4 4 2 4 6 4 4 2 2 3 1 4 7 3 1 2 4 6 5 3 4 5 2 2 4 5 4 4 4 2 4 5 6 11 11 10 10 9 9 9 10 14 15 16 15
18 19 20 21 21 20 17 15 15 16 16 17 18 17 17 18 19 20 21 22 22 18 17 18 17 19 20 21 20 14 11 11 11 12 12 12 11 9 7 6 5 5 6 7 7 5 5 9 10 7 2 1 2 1 6 7 4 3 2 7 8 7 6 7 6 3 2 4 6 5 5 7 6 4 4 11 18 15 12 13 11 11 11 10 12 15 16 16
18 19 20 21 21 20 19 17 16 15 16 17 18 18 17 17 19 20 21 23 22 18 16 16 16 19 19 20 19 10 10 12 12 13 14 13 12 9 6 7 6 5 8 10 10 6 6 9 11 7 1 2 3 3 6 3 2 3 4 9 9 9 9 6 3 2 3 3 5 4 5 7 6 4 5 14 17 13 11 10 9 9 9 9 10 13 16 16
19 20 21 21 21 21 20 19 17 15 16 17 18 18 16 17 18 19 22 23 21 17 16 15 15 17 17 19 15 7 11 13 9 12 13 13 13 10 7 7 7 6 6 9 11 8 9 10 9 7 2 1 2 2 4 2 2 6 7 9 8 9 8 3 2 5 5 3 3 4 6 6 3 2 4 8 5 4 4 4 6 8 7 6 6 10 13 15
20 21 21 21 22 21 20 19 18 16 17 18 18 18 16 15 17 19 21 21 19 17 15 14 15 16 15 15 10 7 13 12 10 13 12 12 13 12 10 9 10 8 5 7 10 10 10 10 10 7 2 2 3 2 2 3 6 7 6 7 7 8 6 1 1 2 1 2 3 3 5 4 1 3 7 11 7 7 9 10 11 10 9 7 6 7 10 13
21 22 21 21 21 21 19 19 18 17 17 18 18 16 13 13 16 18 20 20 18 16 14 14 14 14 13 9 7 10 13 10 12 15 11 10 11 11 12 10 10 9 7 6 8 9 8 9 10 8 4 4 3 1 3 8 8 5 3 3 6 7 4 3 2 1 1 1 1 2 3 4 2 4 8 14 13 13 15 17 16 14 13 11 9 9 10 11
21 21 21 21 20 19 17 17 17 16 17 18 18 14 9 11 15 18 19 17 15 14 14 14 13 13 11 5 7 14 12 9 13 13 9 8 8 8 8 9 9 9 8 6 6 7 7 8 10 9 7 5 2 2 6 8 4 2 2 2 4 6 3 5 4 1 1 2 3 4 2 4 4 6 7 11 12 12 13 15 17 16 15 14 13 13 13 13
22 21 21 20 19 17 16 16 16 16 17 17 16 10 7 11 16 17 17 15 14 16 15 12 12 12 9 5 8 16 13 9 10 10 9 8 6 5 5 7 8 8 7 4 4 5 6 8 10 8 7 5 4 5 6 5 3 1 1 2 3 2 3 6 6 4 2 2 2 5 3 4 5 7 5 8 11 10 10 12 15 16 15 15 15 16 17 17
23 22 21 20 18 16 15 15 15 16 16 15 12 8 9 13 15 15 15 15 15 14 13 13 13 11 7 6 10 15 13 9 9 10 10 10 9 7 6 6 6 6 5 3 3 4 6 9 9 7 6 6 5 4 4 4 4 3 2 2 3 1 4 6 7 6 4 2 1 4 4 5 5 7 9 12 14 13 11 13 15 16 16 16 16 16 18 19
23 22 20 19 17 16 15 15 16 16 14 13 10 9 11 12 14 16 16 15 11 10 17 21 15 5 5 8 12 16 17 16 16 13 9 9 10 10 10 8 3 3 3 1 3 4 6 8 7 6 6 5 3 3 3 4 4 3 3 1 2 2 2 4 4 8 9 5 5 4 1 3 4 11 18 17 16 16 14 15 18 18 19 18 18 18 18 20
22 21 19 18 17 16 15 15 16 15 13 11 10 10 12 15 18 20 18 14 11 10 17 25 16 5 6 15 18 22 22 20 20 17 11 8 9 11 11 8 3 1 1 2 3 4 4 5 4 3 5 4 2 3 4 3 3 3 3 3 1 1 1 1 2 8 12 6 5 6 2 3 6 14 24 21 17 16 14 16 19 20 21 21 21 20 20 20
21 20 18 17 16 16 15 15 16 14 12 10 10 11 15 19 22 24 24 21 19 15 15 25 20 5 5 20 22 23 22 19 20 19 16 10 9 10 10 9 5 3 4 3 3 5 5 4 4 2 4 4 3 4 3 0 1 1 3 3 2 3 1 2 3 5 10 7 5 7 3 4 7 12 21 25 22 16 12 15 18 19 21 21 22 21 20 20
19 19 17 16 16 15 15 16 16 14 13 11 9 10 13 15 19 24 28 29 27 17 8 17 18 3 4 18 24 22 18 18 20 19 17 14 10 8 9 8 6 6 5 4 5 7 5 4 5 4 4 4 3 4 4 4 3 4 4 3 2 1 2 4 4 3 6 6 5 4 3 5 7 9 14 23 24 20 16 16 18 19 20 20 21 21 21 20
18 17 16 15 15 14 14 15 15 14 16 14 6 9 10 10 10 14 24 29 26 16 10 14 15 9 9 15 22 22 17 20 23 21 19 17 11 8 11 9 7 10 6 1 3 5 5 5 4 2 2 3 2 2 3 3 2 4 4 3 2 1 2 4 5 4 4 3 3 4 4 4 5 7 11 19 20 17 17 16 17 20 21 21 21 21 20 19
17 15 15 14 13 12 13 14 15 16 17 15 8 12 12 13 6 6 13 18 22 19 17 19 17 17 16 15 22 22 16 20 26 25 21 18 14 9 12 10 6 7 4 1 2 3 5 5 1 1 3 3 1 2 4 4 4 4 3 3 3 2 3 4 4 5 5 4 4 6 7 6 6 6 10 15 12 10 13 14 15 18 19 20 20 21 22 22
16 13 13 13 12 11 12 13 15 14 13 13 14 18 16 11 5 5 7 6 16 23 19 20 22 23 21 17 20 21 15 16 23 28 24 20 18 11 11 11 5 4 3 2 3 3 5 4 3 4 3 1 2 3 6 6 5 4 3 3 2 2 3 5 4 5 5 3 4 7 6 7 8 6 8 9 7 7 12 12 11 13 15 18 20 22 25 26
15 12 12 12 11 10 10 12 13 11 11 14 18 18 13 9 6 6 6 4 9 22 23 21 23 26 26 20 19 18 13 11 15 24 26 21 19 12 9 8 4 3 5 4 4 3 3 2 6 5 1 4 5 5 6 6 5 4 3 4 0 3 2 2 4 6 5 1 3 6 4 5 6 6 6 6 8 9 12 14 13 13 14 18 21 23 25 27
14 11 12 11 10 9 9 10 9 9 13 15 16 15 11 9 7 6 7 3 2 16 23 20 20 26 26 21 20 15 10 11 14 21 24 22 18 11 5 6 5 4 5 4 6 6 3 3 7 4 4 5 5 6 6 5 4 3 3 4 1 4 1 3 4 6 5 2 2 4 4 3 5 7 6 7 10 10 13 17 19 20 20 22 26 29 29 29
14 12 12 11 10 9 9 9 8 9 12 12 13 13 10 9 7 7 7 1 1 14 22 18 17 23 25 23 22 12 5 12 18 21 21 19 16 8 4 6 5 4 5 4 6 5 3 6 6 5 6 6 6 5 4 4 3 3 1 1 3 4 3 5 5 4 4 4 4 5 4 4 5 7 6 6 8 9 11 14 18 24 27 29 31 32 34 34
14 13 12 12 11 9 9 9 10 10 9 10 11 11 10 9 8 6 5 4 3 11 17 18 14 18 24 25 24 11 2 11 19 21 20 16 14 7 4 5 3 4 3 2 3 2 3 7 6 6 6 7 7 4 3 3 4 2 1 2 3 2 2 4 3 3 2 2 4 4 4 3 5 6 6 5 7 8 9 11 16 25 30 32 33 33 35 36
14 14 13 12 11 10 10 11 11 9 8 10 10 10 10 10 8 6 4 5 5 7 11 15 12 15 22 23 23 12 1 11 18 22 23 16 11 10 6 4 3 4 3 1 2 1 3 7 9 7 6 6 5 4 4 3 5 1 2 1 1 1 2 1 2 3 1 1 4 5 3 1 3 4 6 6 6 7 11 12 16 24 30 33 34 35 35 35
14 14 13 12 12 12 12 11 10 10 10 9 10 11 11 10 8 5 4 4 5 7 6 11 12 18 25 22 24 17 5 11 13 17 27 21 12 10 8 5 2 2 5 2 2 2 2 5 7 7 6 5 3 2 3 3 3 1 3 1 1 1 1 2 4 2 1 2 4 6 3 2 2 5 6 5 5 8 12 11 12 20 28 31 33 35 36 37
14 14 14 14 13 13 13 12 12 12 11 9 10 11 12 12 8 3 6 3 4 6 6 11 13 20 26 21 23 23 15 13 10 13 27 27 17 9 5 6 4 2 6 5 3 1 1 2 3 3 4 3 2 4 3 2 1 4 3 2 2 4 3 3 4 1 3 4 2 5 4 2 3 5 5 4 6 7 9 8 9 17 25 29 32 36 37 40
13 13 14 13 12 11 11 11 12 11 10 9 10 11 12 10 4 4 6 1 2 6 10 10 10 17 23 14 14 22 16 13 16 19 23 25 25 21 8 7 8 4 4 7 4 3 2 2 2 3 4 3 4 3 1 1 3 4 4 4 3 5 4 3 3 3 5 3 3 4 4 2 1 4 3 0 3 5 6 7 10 16 24 30 33 35 37 39
13 14 14 13 11 11 10 9 10 9 10 10 10 10 8 7 4 6 4 3 2 7 9 7 8 13 15 6 6 15 11 11 19 18 16 16 23 27 15 8 9 5 5 7 5 5 6 6 3 2 7 7 2 2 4 3 3 3 3 4 3 4 4 4 4 4 4 2 5 4 3 2 2 3 4 3 2 6 6 6 8 12 21 29 33 35 36 38
13 13 13 13 12 11 11 11 11 11 11 10 9 6 2 5 5 2 2 5 3 4 5 4 6 8 8 4 5 10 6 7 14 11 9 8 9 15 12 6 6 4 5 6 4 6 5 3 5 5 8 14 7 1 5 6 7 5 3 4 4 2 4 3 4 2 1 3 4 5 4 2 2 5 5 5 6 7 6 7 8 11 21 29 32 34 36 37
11 12 12 12 12 11 12 13 13 13 10 7 7 6 6 6 4 1 3 4 1 3 4 4 6 6 6 5 6 8 4 4 11 10 7 5 6 8 8 9 9 4 3 4 3 6 4 3 9 7 6 13 8 2 3 4 5 5 3 3 3 3 3 1 2 2 1 4 5 4 4 1 3 3 2 2 4 6 9 13 13 16 24 28 30 33 38 41
11 11 11 10 11 12 13 13 14 12 8 5 7 9 9 5 0 2 2 2 2 4 4 3 6 6 4 4 4 6 4 2 7 9 7 7 7 7 8 12 14 6 2 3 3 4 2 2 8 6 5 10 7 2 0 1 3 3 1 4 3 3 3 2 2 1 2 3 5 4 3 1 2 0 2 2 2 7 14 20 23 27 31 32 33 37 41 44
10 10 9 9 10 11 12 13 14 11 4 6 9 8 6 3 2 1 2 3 2 4 5 4 5 5 5 4 3 5 4 3 6 6 6 7 7 6 6 7 12 9 3 4 3 2 3 1 5 4 4 6 6 4 2 1 2 2 1 3 2 1 2 2 2 3 1 1 3 2 0 3 2 1 2 5 9 15 21 26 30 32 35 36 37 39 41 42
8 8 8 9 9 12 13 13 15 11 3 8 11 6 2 1 2 1 1 3 2 4 6 5 5 5 5 4 4 8 6 3 6 5 4 5 6 7 6 4 8 9 4 3 2 3 3 2 5 6 4 5 8 7 4 4 1 1 3 2 1 1 2 2 1 1 3 2 2 1 1 4 3 2 4 9 13 18 22 25 28 29 33 35 35 37 39 40
6 7 8 9 11 14 13 12 13 10 7 12 9 3 1 1 2 2 3 4 2 3 3 4 4 4 4 3 4 9 9 5 5 5 3 4 4 7 6 5 8 10 5 1 1 1 3 3 4 5 4 7 10 7 5 9 6 2 3 2 2 1 2 3 2 2 4 1 3 2 1 4 4 2 6 12 16 18 19 22 27 31 35 35 34 36 39 40
5 7 8 10 13 13 12 14 11 5 10 14 8 3 2 2 2 3 4 4 2 2 4 2 2 2 2 3 3 6 7 5 5 4 3 3 3 5 6 5 10 15 12 5 1 1 2 2 4 2 2 8 10 4 4 11 11 5 1 1 1 3 2 2 2 2 2 0 3 4 2 2 1 1 6 12 14 15 17 20 23 26 29 31 34 38 41 42
5 5 7 11 12 12 12 12 8 7 13 10 3 2 1 3 3 3 4 4 1 1 3 0 1 2 2 2 2 4 4 4 4 3 3 3 2 4 8 5 9 19 19 8 2 2 2 2 3 5 4 5 5 5 2 6 8 5 3 3 2 2 1 1 1 1 1 1 2 3 3 2 3 2 6 11 10 11 14 15 16 22 27 28 31 36 39 41
5 4 6 9 10 11 10 7 8 14 12 3 2 2 1 2 2 3 4 3 1 2 2 0 1 2 2 2 1 2 3 3 3 2 2 2 2 3 8 8 6 15 17 8 4 1 2 3 2 6 7 3 2 3 1 2 5 5 5 5 5 3 2 2 1 1 3 2 0 1 3 4 5 0 7 10 9 10 12 11 13 23 30 30 29 32 36 38
6 3 6 9 10 10 7 7 11 11 5 1 1 1 1 1 2 5 5 3 2 3 2 1 2 1 1 2 2 2 2 3 3 2 1 3 3 1 6 11 10 10 9 5 4 2 1 2 1 3 5 4 2 3 1 2 2 4 4 3 3 3 3 4 2 3 2 2 2 2 2 6 4 3 7 8 9 12 15 13 14 23 30 32 32 31 32 35
5 3 5 10 10 8 7 9 8 5 3 2 1 1 1 1 2 5 6 4 3 3 3 2 2 2 1 1 2 1 1 2 2 2 1 2 2 0 7 19 20 11 3 2 3 2 2 2 2 1 2 2 5 5 3 1 0 5 4 2 3 2 4 4 1 3 2 1 0 1 1 5 3 5 9 10 12 15 19 18 17 21 27 31 35 34 33 34
6 4 6 9 8 6 7 7 5 4 2 1 0 1 2 2 2 4 5 5 3 3 4 3 1 2 2 1 2 1 1 0 1 1 1 2 3 2 10 24 24 12 5 2 2 2 2 3 3 3 4 4 5 5 5 3 3 5 3 2 4 2 1 3 3 1 0 1 1 1 1 5 3 7 14 17 18 18 20 20 20 21 24 29 33 35 36 36
7 8 9 10 8 4 4 3 1 1 2 2 3 4 3 2 4 4 3 4 4 2 2 2 1 2 1 2 1 1 2 1 1 2 1 1 4 5 14 26 21 9 5 3 3 4 2 1 2 3 4 5 6 6 5 5 5 3 2 3 4 2 2 1 1 1 0 2 3 2 2 6 3 7 15 18 17 17 19 21 22 22 23 26 30 32 36 39
4 5 8 12 10 7 7 5 5 3 0 2 3 3 2 3 4 5 3 4 5 3 2 1 1 1 2 2 2 2 2 2 1 3 1 1 4 5 15 25 20 9 6 9 10 6 1 1 2 4 3 1 2 2 3 4 4 2 3 5 4 2 2 2 1 0 1 1 2 3 4 7 5 7 12 14 13 13 18 23 23 23 23 25 27 28 33 39
3 2 4 9 12 14 13 8 7 6 3 3 2 1 2 2 3 5 4 4 6 6 4 2 2 2 2 3 3 2 2 2 1 1 2 3 2 4 16 22 15 9 7 14 19 9 2 2 1 5 5 4 4 4 4 4 4 4 6 7 4 2 1 2 1 2 2 1 2 5 7 9 10 8 10 13 12 11 16 21 23 25 26 26 26 25 28 36
3 1 2 3 6 11 12 9 7 6 4 3 2 0 2 1 2 4 3 3 5 5 4 4 4 3 1 3 2 2 3 4 2 1 4 4 1 8 19 16 9 8 8 13 18 7 3 3 2 4 3 3 3 5 5 4 4 5 6 7 5 4 2 2 2 4 2 1 4 6 5 6 8 8 9 12 11 10 14 20 22 25 27 27 26 24 27 34
3 2 2 3 1 2 5 5 6 7 5 3 2 2 2 2 2 2 2 3 5 4 3 2 4 4 2 2 1 1 3 4 2 1 3 3 3 8 13 9 4 8 10 12 13 6 4 1 1 2 3 4 5 6 6 4 4 4 5 7 7 6 4 5 6 7 4 3 7 8 6 8 9 7 8 11 13 13 15 19 22 27 30 28 25 24 26 34
5 5 4 5 3 3 4 3 5 9 6 3 2 1 2 2 1 1 1 2 3 4 3 1 3 5 5 3 2 1 2 2 2 3 2 4 5 4 5 4 2 7 13 11 7 4 3 1 2 0 5 6 6 7 6 4 4 4 6 8 7 7 7 7 8 7 6 8 11 10 11 12 8 4 7 14 19 18 18 21 24 30 34 30 25 24 28 35
5 4 5 8 7 6 5 3 4 6 4 3 2 1 1 3 1 2 1 1 1 3 2 1 3 5 3 0 2 2 3 1 2 3 2 4 4 2 1 2 3 6 11 6 2 4 3 1 2 1 2 5 6 5 4 4 4 5 9 10 6 5 5 5 5 5 5 7 9 7 9 8 4 6 10 16 20 20 18 22 27 32 34 30 26 27 32 38
3 3 6 8 5 3 3 2 3 4 2 2 1 1 2 2 0 2 2 0 1 2 2 1 3 4 1 1 1 4 3 1 5 9 9 9 8 5 4 4 3 5 6 3 2 3 2 1 3 2 1 3 4 5 6 5 4 5 9 10 6 2 3 3 4 4 5 5 5 4 4 3 5 10 12 13 17 19 18 21 27 34 34 27 26 31 38 43
4 5 6 5 2 1 2 2 3 3 0 0 2 2 1 1 0 1 1 1 2 3 1 3 2 2 1 2 3 4 4 8 14 17 19 20 19 17 16 14 10 7 3 1 2 1 1 1 2 2 2 2 3 5 6 5 5 3 4 5 4 3 3 3 4 4 4 4 2 2 2 3 7 10 9 9 13 17 20 23 28 32 29 24 29 37 43 45
Wind_Direction
359 358 356 355 354 356 357 353 354 355 354 354 354 354 352 350 349 348 347 346 345 343 340 339 338 337 339 338 336 333 330 334 354 26 32 28 14 341 312 311 317 312 301 307 319 317 312 289 262 250 245 240 244 241 218 204 189 182 171 176 200 194 187 182 180 192 176 169 220 27 47 58 3 337 229 203 203 205 212 219 221 221 226 235 247 254 245 213
346 348 347 346 345 348 351 348 347 347 348 348 349 349 348 347 346 345 344 344 344 342 338 337 337 337 337 338 337 333 329 331 347 30 36 28 9 311 290 313 326 324 314 319 325 323 325 313 279 245 225 216 220 224 215 199 192 191 137 183 213 192 184 183 178 194 193 173 230 3 37 39 28 12 279 255 259 200 201 225 229 233 232 235 243 244 234 218
338 339 339 338 337 339 341 343 343 342 342 344 344 345 346 346 345 344 341 339 340 340 338 336 335 335 336 337 337 332 327 330 355 26 19 15 356 300 309 333 336 331 323 326 329 328 331 323 306 248 193 188 200 209 214 193 191 219 175 203 227 197 204 202 190 204 210 209 326 332 349 23 41 17 5 240 332 227 214 222 223 231 233 232 236 238 229 219
336 333 331 329 328 331 333 335 337 338 339 341 342 343 344 346 347 345 343 339 336 337 338 335 334 335 334 336 338 333 330 334 28 43 10 1 350 324 328 331 337 339 332 334 338 333 329 326 314 224 169 165 190 190 214 201 188 225 197 211 225 192 220 217 206 220 225 244 292 298 323 347 356 357 16 144 23 286 245 236 236 242 240 231 232 234 227 222
350 345 339 331 323 322 326 328 330 333 335 338 338 338 340 342 344 344 344 344 339 335 335 335 334 334 333 336 339 338 339 351 71 57 24 1 347 331 327 331 347 347 337 334 337 333 331 331 316 168 148 126 161 169 219 219 205 236 224 248 247 204 217 227 214 228 237 260 279 298 317 309 318 330 273 231 248 256 265 275 282 266 254 244 243 241 228 226
2 -0 357 351 340 324 317 322 325 326 328 332 334 333 334 336 338 339 340 341 342 339 333 333 334 333 334 336 339 345 351 354 12 15 8 360 349 336 328 335 354 347 326 319 325 335 1 3 9 111 109 89 92 162 337 300 245 255 265 314 303 263 273 311 300 225 232 241 252 273 287 292 331 308 281 255 249 269 295 306 313 298 272 254 249 246 236 234
360 359 -0 0 357 345 325 315 318 322 324 325 328 330 331 333 333 333 336 337 340 341 333 332 333 331 334 338 344 353 359 342 346 347 341 351 347 335 328 332 353 346 326 322 340 14 37 33 47 30 26 84 69 113 353 341 322 266 276 351 345 331 343 313 323 329 263 234 237 246 257 284 300 291 296 260 260 281 298 300 304 312 304 269 247 246 247 247
357 356 357 357 357 356 345 326 315 314 317 320 322 324 327 331 329 330 334 333 338 341 333 332 331 330 335 343 346 355 8 356 347 341 332 338 341 335 324 321 345 5 18 34 30 30 37 42 39 19 5 60 43 30 8 358 19 56 293 333 336 331 346 326 316 320 304 264 262 267 252 263 262 265 293 268 268 278 290 295 295 296 301 284 256 248 248 248
355 353 352 352 351 352 350 342 328 314 311 312 315 318 323 329 328 329 332 332 339 340 333 333 329 330 335 341 346 360 10 354 344 342 333 330 335 334 321 319 339 16 42 47 41 43 46 42 32 22 22 15 25 14 19 39 46 23 299 315 318 316 333 335 343 3 338 273 249 262 268 272 262 261 274 268 271 278 282 286 291 295 299 291 264 251 247 248
350 349 346 344 343 343 342 340 337 330 321 313 310 311 316 326 325 326 331 333 340 339 335 334 325 332 339 342 354 18 4 357 356 348 334 324 325 322 315 326 335 353 35 42 40 48 49 39 26 29 44 10 26 356 31 91 324 327 306 306 298 303 321 343 0 330 326 286 233 225 260 271 214 176 260 262 274 280 265 283 302 311 321 316 280 259 251 252
346 344 340 336 334 335 336 333 334 338 333 326 319 308 307 321 322 324 331 335 339 339 336 332 329 338 344 345 0 16 1 8 14 359 339 318 318 320 321 329 331 336 2 28 34 40 43 36 27 34 34 0 358 317 50 27 331 322 321 314 305 318 324 342 356 299 321 296 263 216 258 281 159 145 240 250 261 274 279 291 300 305 312 315 301 279 261 261
344 341 338 335 332 331 333 330 331 337 334 331 328 316 306 313 320 327 334 335 338 341 339 337 339 344 347 355 11 7 3 11 11 4 355 326 319 324 325 327 328 328 332 354 22 33 35 28 26 26 1 352 339 325 13 343 326 315 351 337 320 349 353 355 34 134 81 310 72 95 285 283 205 187 231 255 267 273 279 284 289 291 291 293 291 283 272 275
347 346 343 341 339 336 334 330 330 336 337 334 336 331 313 313 325 333 335 336 341 341 335 337 349 353 349 351 7 5 -0 360 1 -0 3 346 320 317 316 314 318 319 322 342 7 17 23 14 13 13 3 1 326 336 335 323 328 310 37 81 336 4 352 349 13 29 96 201 154 103 268 262 241 237 236 265 279 279 278 277 282 285 283 284 284 283 281 282
353 352 350 347 345 343 339 334 333 340 344 345 349 350 331 328 335 340 341 339 336 331 330 339 350 353 348 341 356 1 357 348 351 356 3 2 337 310 293 287 294 301 307 333 0 1 11 0 1 12 14 4 328 339 336 332 28 30 42 44 10 52 277 331 2 358 64 198 171 134 224 269 267 269 270 294 308 314 301 285 283 285 286 287 285 286 288 287
357 356 354 350 348 350 347 340 343 353 356 359 7 7 347 344 350 355 350 340 334 340 358 1 347 345 355 0 355 360 7 359 354 4 1 1 4 351 332 302 273 278 295 328 359 336 342 349 1 13 6 359 349 4 359 345 11 24 73 2 349 107 272 326 16 22 29 328 26 135 234 279 259 285 317 324 332 342 335 315 304 299 300 301 299 297 296 297
1 -0 358 355 356 358 354 350 358 4 7 13 20 9 359 11 22 17 1 348 356 24 27 11 358 16 37 5 359 7 18 14 6 9 358 355 7 2 357 347 289 261 271 0 13 330 322 345 11 19 9 13 28 56 43 8 357 0 78 117 334 44 303 317 18 27 26 2 4 53 282 304 290 314 327 333 338 340 338 328 320 315 312 311 311 310 310 310
6 5 4 5 6 4 2 4 8 10 17 23 23 23 37 53 50 38 28 27 41 46 28 17 18 99 55 12 7 4 8 10 9 11 7 360 358 357 359 2 12 142 165 126 22 5 1 9 29 24 17 34 50 73 65 13 333 328 25 103 53 26 82 324 311 5 26 43 5 13 34 295 294 316 327 335 342 345 344 332 324 320 315 313 313 313 314 316
10 9 11 12 12 11 13 14 12 16 23 19 22 50 71 67 56 48 43 46 50 46 32 23 28 102 28 5 0 356 0 9 13 15 13 9 2 4 9 14 39 106 120 100 43 37 45 34 52 59 11 20 21 54 91 158 199 38 30 79 45 5 27 351 297 339 16 30 354 355 357 306 306 317 326 332 339 346 350 337 328 325 320 316 314 314 315 317
12 14 15 15 20 21 20 19 17 21 26 23 36 77 89 71 56 49 43 43 45 47 33 10 19 72 305 344 353 359 11 19 18 17 15 14 15 22 24 24 57 94 100 86 35 33 44 35 50 61 13 4 6 43 109 154 129 95 70 92 94 30 292 289 276 295 1 0 335 346 324 302 315 316 317 324 330 336 340 343 341 338 334 329 326 326 326 327
14 18 18 18 25 27 25 25 22 24 30 32 66 109 82 46 43 37 33 40 43 43 37 15 16 17 336 339 358 7 21 29 24 20 17 15 17 25 27 36 75 71 68 109 22 30 59 62 58 73 346 308 311 40 119 147 94 86 80 67 80 83 302 291 283 300 359 4 285 298 313 297 299 292 296 313 323 331 336 344 347 341 339 338 339 342 342 341
15 20 24 24 26 30 31 30 27 29 28 26 76 107 60 26 23 354 6 33 39 35 32 26 22 16 4 354 0 2 9 22 26 26 22 19 23 30 25 35 71 52 24 275 10 38 71 72 52 258 263 258 231 81 87 91 66 67 81 65 38 27 288 276 281 313 4 35 288 309 336 313 295 284 288 307 320 329 336 343 342 338 339 341 346 350 351 352
16 22 28 30 29 32 33 34 33 29 20 22 61 83 65 39 31 349 337 6 29 28 23 20 20 16 14 9 4 1 360 10 19 22 21 22 32 36 25 36 59 29 358 13 37 35 58 61 320 291 259 121 66 58 72 79 78 71 70 79 38 341 295 295 305 327 1 34 300 319 340 310 299 293 283 300 320 329 342 351 348 346 348 350 353 354 355 357
18 25 32 34 33 32 30 35 32 23 24 29 47 63 63 41 17 2 354 289 5 21 17 14 14 10 12 11 2 1 7 12 6 9 13 16 25 29 25 36 47 26 20 43 81 76 61 27 317 309 119 85 43 33 69 74 63 72 73 82 325 306 344 310 315 332 344 36 284 305 319 310 323 330 304 317 342 341 349 359 4 7 1 356 358 357 358 358
22 31 36 35 36 35 29 32 26 20 30 32 36 46 45 27 9 350 353 285 308 11 12 13 10 8 7 3 359 356 6 18 3 2 9 9 11 19 21 20 28 34 18 42 88 95 78 329 320 347 77 88 71 38 60 79 45 36 74 93 290 304 281 244 296 332 344 11 338 340 353 330 349 360 335 333 346 348 357 4 8 10 8 3 1 360 0 1
28 37 39 35 35 34 30 30 22 20 27 29 28 29 24 13 5 343 347 31 300 352 5 12 9 8 5 1 3 355 355 21 11 3 7 9 8 7 10 15 30 28 3 27 72 82 46 342 343 46 57 62 83 53 42 105 74 18 59 144 260 263 246 273 316 1 22 0 339 29 38 303 329 359 336 334 346 344 358 9 7 4 4 3 1 1 2 4
34 41 40 37 35 32 34 33 24 19 21 22 17 13 7 3 7 354 353 67 33 341 356 2 -0 6 4 1 3 2 13 14 14 13 12 14 15 13 9 9 34 27 356 23 62 84 22 0 21 65 63 58 73 55 26 104 94 45 193 203 258 213 197 296 339 51 70 301 326 53 104 266 329 344 318 331 338 335 357 8 3 0 1 1 1 3 5 8
39 41 41 39 38 38 42 39 28 23 22 15 7 3 359 357 0 350 355 55 22 339 345 349 352 1 358 360 10 29 122 341 6 24 20 17 23 38 41 3 19 17 339 347 44 44 355 6 25 35 46 60 58 39 18 70 99 94 227 186 333 66 82 347 78 93 186 244 345 18 99 143 333 302 294 328 346 353 4 1 356 358 359 1 4 7 11 14
39 39 39 37 40 44 44 42 34 32 29 13 4 4 358 351 342 346 64 83 347 337 342 341 350 358 358 13 28 40 43 350 6 25 25 30 32 42 52 28 48 5 351 52 79 43 19 17 24 25 36 49 33 319 321 17 88 246 281 305 332 41 94 87 92 112 314 54 355 339 36 84 300 289 306 347 28 16 360 351 348 354 358 3 6 9 12 13
38 38 36 32 36 41 40 39 34 31 24 7 2 358 351 348 333 358 72 89 314 336 339 345 353 351 356 16 27 23 24 20 15 14 28 39 38 42 62 22 48 75 12 51 88 36 10 358 11 40 45 26 311 277 281 37 349 277 320 358 44 52 51 64 73 88 40 53 324 321 15 67 287 294 319 9 44 16 346 340 346 354 1 5 6 7 8 8
40 41 38 34 35 37 37 35 29 23 8 356 350 341 344 356 6 64 48 323 287 343 332 344 350 342 352 9 11 5 11 15 7 10 26 37 38 44 54 12 28 63 26 35 50 9 338 351 24 55 23 312 272 300 309 138 272 293 8 17 29 30 27 41 33 60 55 12 274 318 4 67 340 289 283 25 68 27 347 342 348 355 3 5 6 6 6 6
42 43 43 41 40 40 36 31 25 10 348 336 328 327 348 19 54 93 52 286 284 345 342 350 341 342 358 23 1 353 355 0 1 11 20 22 32 37 35 11 9 27 29 18 16 7 17 32 13 0 15 1 334 10 16 16 1 31 57 41 39 6 8 25 359 36 67 286 266 313 338 89 99 265 263 265 37 31 8 350 343 349 1 4 5 5 4 3
42 44 47 44 43 39 27 17 6 353 343 337 333 329 34 42 37 107 316 324 326 337 338 333 332 341 343 354 13 352 341 356 357 8 18 9 29 35 37 27 355 10 31 7 355 8 21 38 347 331 23 24 20 25 6 2 18 38 51 53 64 20 8 19 347 15 91 253 268 318 348 89 198 251 272 315 359 8 0 1 358 360 6 5 4 3 1 1
42 44 46 42 38 30 17 6 354 351 359 15 36 57 83 74 40 277 294 338 347 310 315 303 316 328 327 351 8 347 338 6 358 2 6 12 38 36 39 32 15 36 54 0 3 11 346 332 4 1 7 17 26 69 20 347 359 15 44 76 98 95 60 350 315 0 302 272 282 318 14 38 281 277 255 305 351 354 4 16 22 20 12 5 1 1 1 1
41 41 40 37 28 16 7 1 356 359 11 41 66 60 62 79 348 333 327 278 253 302 321 312 317 330 3 24 352 336 354 3 358 4 1 16 34 19 16 20 16 23 59 26 28 31 30 337 5 10 334 358 19 52 310 256 341 343 138 106 111 131 120 187 214 142 239 276 299 335 39 154 250 101 148 154 2 10 20 23 22 16 8 3 1 2 1 359
41 35 33 29 18 10 7 4 4 6 15 68 69 63 69 108 244 312 311 275 275 309 317 336 354 2 8 358 331 353 22 348 355 18 19 28 38 10 358 4 8 9 15 35 18 15 69 290 313 330 321 359 7 329 320 78 356 324 110 82 57 148 147 149 154 170 191 307 305 327 73 220 223 47 34 28 11 11 19 20 16 9 3 2 2 -0 359 356
39 29 27 21 16 18 13 10 13 14 72 97 72 61 103 177 223 200 296 321 336 313 321 348 22 24 354 331 334 353 7 2 4 22 20 28 39 15 354 332 7 19 18 35 26 348 18 295 305 344 358 31 16 339 1 48 338 316 44 37 306 217 142 105 58 357 48 60 286 324 299 296 333 358 353 16 13 9 12 12 10 5 1 2 -0 357 355 353
39 28 23 19 24 22 15 18 16 16 75 88 76 81 187 224 199 202 300 332 306 305 3 22 8 14 354 331 329 342 351 359 13 29 16 11 23 8 354 329 1 19 10 11 85 355 352 290 311 11 359 346 355 340 1 29 37 73 47 343 312 39 95 95 81 14 41 82 283 328 288 314 352 344 340 9 16 9 4 1 0 0 360 358 354 353 353 352
25 19 21 21 22 18 21 27 9 9 78 75 75 112 158 259 238 242 307 328 292 347 52 54 326 17 10 346 323 331 350 1 4 27 25 9 12 7 8 344 347 358 356 4 49 353 31 310 296 4 309 315 346 15 2 10 29 71 103 310 62 82 47 37 85 47 36 94 307 323 311 321 322 260 352 11 19 12 3 357 355 354 355 353 350 351 352 353
349 359 17 17 16 15 22 22 17 72 80 72 88 127 174 262 277 288 329 338 282 46 52 48 317 27 16 17 320 318 356 13 353 18 51 21 347 16 26 9 339 345 350 12 67 298 32 63 303 309 317 313 358 41 25 344 360 25 38 19 47 111 119 18 109 105 91 130 316 333 346 317 236 222 22 22 23 18 7 357 347 343 346 351 352 352 353 355
346 355 10 7 10 12 11 16 48 67 69 72 164 137 206 248 315 357 15 7 18 60 58 221 46 29 346 2 345 321 4 19 357 18 53 4 328 22 25 19 345 335 342 12 80 325 2 64 346 315 332 4 37 27 39 316 345 13 28 21 6 356 28 35 21 80 90 102 130 350 329 285 252 169 47 34 25 17 6 353 340 338 342 347 353 356 356 357
359 10 3 3 9 11 25 56 53 54 69 97 94 123 227 264 348 17 40 57 61 59 87 123 76 66 335 352 351 332 350 1 11 30 31 1 10 42 12 5 350 328 336 13 38 18 27 52 48 323 344 23 4 332 343 280 346 53 45 28 23 10 47 61 345 334 47 102 154 163 268 278 283 54 62 48 27 6 356 350 342 341 343 345 351 357 360 359
26 38 359 5 10 14 54 68 40 40 105 83 42 214 311 332 353 21 36 56 63 46 56 80 65 44 51 331 325 347 17 356 4 20 0 339 355 325 351 356 352 342 354 35 332 336 91 75 60 306 298 298 288 317 26 281 103 69 53 64 77 50 78 99 288 316 357 9 110 136 216 273 286 67 64 43 21 1 352 351 348 345 346 347 349 353 358 360
52 44 8 11 13 25 67 68 19 18 67 56 28 66 2 0 31 26 22 30 32 33 45 47 27 34 41 327 322 346 17 343 255 345 328 290 316 340 353 355 356 356 11 22 325 353 56 64 46 327 304 309 306 333 30 43 63 57 19 41 70 43 80 145 189 194 310 286 322 53 331 267 265 53 42 23 10 359 352 354 353 348 349 350 349 350 354 357
60 45 28 22 12 25 86 100 100 40 345 351 39 35 23 38 39 23 11 17 15 41 70 38 16 43 357 325 14 344 335 13 273 319 328 272 324 351 355 353 356 4 11 3 324 331 3 53 73 36 353 351 349 346 352 358 31 55 331 4 38 2 347 14 103 88 236 216 147 135 241 257 261 36 23 7 0 353 349 354 353 348 349 350 348 349 352 354
51 45 39 36 38 73 99 115 132 130 340 35 44 12 12 33 31 35 43 34 30 53 81 34 27 46 332 343 27 341 345 64 347 312 350 316 309 340 352 348 349 357 15 22 7 352 46 114 106 98 90 42 319 299 299 333 358 10 318 331 347 346 25 55 48 0 266 294 97 154 235 275 311 19 10 354 351 345 344 350 351 348 349 348 347 348 352 353
50 54 29 35 51 73 83 91 108 120 149 127 78 8 48 46 6 29 46 43 36 45 60 51 27 13 2 19 22 334 336 22 14 304 334 325 291 341 344 339 342 356 27 33 18 8 121 79 79 140 150 181 208 238 258 317 321 299 305 311 311 316 92 111 114 224 219 353 310 234 242 278 308 356 2 343 339 339 339 344 346 345 344 345 346 349 352 354
65 71 2 30 52 65 68 66 80 105 141 139 134 209 84 64 341 13 35 41 37 40 58 54 39 28 10 16 11 310 322 339 351 15 336 327 314 332 332 330 347 18 46 36 15 16 123 26 2 160 182 222 244 278 285 309 294 274 293 296 283 279 249 162 194 224 187 48 284 252 244 276 303 345 354 332 328 335 335 339 341 339 338 342 346 350 353 353
69 108 88 83 76 62 61 51 70 93 101 108 134 154 87 63 34 32 18 18 32 40 54 37 20 21 3 351 340 292 333 338 320 329 332 339 359 336 331 334 17 35 42 29 13 44 117 340 247 173 313 291 274 280 276 277 267 254 269 276 276 277 238 204 228 231 191 197 251 261 287 297 302 330 341 324 321 325 327 333 338 338 338 340 345 350 353 352
102 116 96 87 102 122 104 80 86 91 81 54 68 96 111 102 66 352 336 6 10 17 46 68 326 344 338 348 55 339 324 332 297 308 341 343 335 318 318 322 341 21 27 22 13 45 93 227 208 259 318 298 275 272 269 259 262 271 273 268 270 270 247 231 244 236 206 227 249 267 291 292 291 319 331 321 318 319 327 337 344 343 338 337 343 350 352 350
121 128 120 108 98 90 90 83 89 91 63 28 45 27 82 101 59 317 324 67 299 314 33 118 287 309 302 348 102 209 245 187 245 266 311 341 328 313 326 281 274 353 8 11 3 19 29 321 283 269 297 296 286 287 290 263 247 274 288 288 292 285 264 253 251 229 213 245 258 265 276 276 302 340 329 322 320 323 337 348 348 341 334 336 345 350 349 347
125 143 142 124 95 57 72 70 85 94 33 12 91 7 18 66 20 309 308 337 206 214 115 120 277 298 297 160 197 229 239 308 275 271 282 286 273 264 270 262 276 336 353 0 337 0 25 314 317 347 324 282 273 283 295 296 294 292 290 289 290 269 251 252 243 208 195 235 263 273 271 288 336 332 327 326 325 330 343 353 346 334 331 339 348 347 346 345
126 145 156 138 89 56 116 91 76 87 33 254 129 102 62 122 163 36 348 328 145 154 83 13 314 293 298 266 257 254 282 301 292 289 289 281 272 268 265 265 275 285 290 347 340 314 180 268 319 339 298 280 296 295 298 334 1 320 268 254 250 252 252 256 267 250 218 223 265 295 310 328 320 319 329 336 337 340 344 346 336 326 328 343 346 343 342 339
Height
1543 1542 1541 1541 1540 1539 1538 1537 1536 1535 1534 1532 1531 1529 1528 1527 1525 1524 1522 1521 1519 1518 1516 1515 1513 1511 1509 1507 1505 1503 1502 1500 1500 1499 1499 1499 1498 1498 1498 1497 1497 1496 1495 1495 1494 1493 1493 1494 1493 1494 1494 1495 1497 1497 1498 1498 1499 1500 1501 1504 1505 1505 1505 1502 1501 1501 1499 1499 1499 1499 1498 1499 1498 1498 1498 1498 1499 1500 1500 1501 1501 1501 1501 1501 1501 1501 1501 1501
1543 1542 1542 1541 1540 1539 1538 1537 1536 1535 1533 1532 1531 1529 1528 1527 1525 1524 1522 1521 1519 1518 1516 1514 1513 1511 1509 1507 1505 1503 1501 1500 1500 1499 1499 1499 1498 1498 1497 1497 1496 1495 1495 1494 1494 1493 1493 1493 1492 1493 1494 1495 1496 1497 1497 1497 1497 1498 1499 1501 1500 1498 1498 1495 1496 1496 1496 1497 1498 1498 1499 1499 1499 1499 1499 1499 1500 1500 1500 1500 1500 1501 1500 1500 1500 1501 1501 1501
1543 1543 1542 1541 1540 1539 1537 1537 1536 1534 1533 1532 1531 1529 1528 1526 1525 1524 1522 1520 1519 1517 1516 1514 1513 1511 1509 1507 1505 1503 1501 1500 1499 1499 1499 1498 1498 1497 1497 1496 1496 1495 1494 1494 1493 1493 1493 1492 1492 1492 1493 1494 1495 1496 1497 1496 1496 1497 1498 1498 1495 1494 1494 1493 1494 1494 1495 1496 1497 1498 1498 1499 1499 1499 1499 1500 1500 1501 1500 1499 1499 1499 1499 1499 1499 1500 1500 1501
1543 1542 1542 1540 1539 1538 1537 1536 1535 1534 1533 1532 1530 1529 1528 1526 1525 1523 1522 1520 1518 1517 1515 1514 1512 1510 1509 1507 1505 1503 1500 1499 1499 1499 1499 1498 1498 1497 1497 1496 1495 1495 1494 1493 1493 1493 1493 1492 1492 1492 1492 1493 1494 1496 1496 1496 1497 1496 1496 1496 1494 1493 1493 1492 1493 1494 1495 1496 1497 1497 1497 1498 1499 1499 1500 1500 1501 1501 1499 1499 1499 1498 1498 1498 1499 1499 1500 1500
1543 1542 1541 1539 1538 1537 1536 1535 1535 1533 1532 1531 1530 1529 1527 1526 1525 1523 1521 1520 1518 1517 1515 1513 1512 1510 1508 1506 1504 1502 1500 1499 1499 1499 1498 1498 1498 1497 1497 1496 1495 1494 1494 1493 1493 1492 1492 1492 1492 1491 1491 1492 1493 1495 1496 1496 1496 1496 1494 1493 1493 1493 1493 1492 1493 1494 1494 1495 1496 1497 1497 1498 1498 1499 1500 1500 1501 1501 1499 1499 1499 1498 1498 1499 1499 1499 1499 1499
1543 1542 1540 1539 1537 1536 1535 1535 1534 1533 1531 1530 1529 1528 1527 1526 1524 1523 1521 1519 1518 1516 1514 1513 1511 1510 1508 1506 1504 1502 1501 1500 1498 1499 1498 1498 1497 1497 1497 1496 1496 1495 1494 1493 1493 1492 1492 1492 1492 1492 1491 1491 1493 1494 1495 1495 1496 1496 1494 1493 1493 1493 1494 1493 1493 1493 1494 1495 1496 1497 1497 1497 1497 1498 1499 1500 1500 1499 1498 1499 1498 1498 1498 1499 1499 1499 1499 1499
1543 1542 1540 1538 1537 1535 1534 1533 1533 1532 1531 1529 1528 1527 1526 1525 1524 1522 1521 1519 1517 1516 1514 1512 1511 1509 1507 1506 1504 1502 1501 1500 1499 1499 1498 1498 1497 1497 1496 1496 1496 1495 1494 1493 1492 1492 1492 1492 1492 1493 1492 1492 1493 1494 1494 1494 1494 1496 1495 1494 1494 1493 1494 1494 1494 1494 1494 1495 1496 1497 1497 1497 1497 1498 1498 1498 1497 1498 1498 1498 1498 1498 1498 1498 1499 1499 1498 1498
1543 1542 1540 1538 1537 1535 1534 1533 1532 1531 1530 1529 1527 1526 1525 1524 1523 1521 1520 1518 1517 1515 1513 1512 1511 1509 1507 1505 1503 1502 1501 1501 1500 1499 1498 1498 1497 1497 1496 1496 1496 1495 1494 1493 1493 1492 1492 1493 1493 1493 1494 1494 1494 1494 1494 1494 1495 1496 1496 1495 1494 1494 1494 1494 1494 1494 1494 1495 1495 1496 1497 1497 1497 1498 1498 1496 1496 1497 1498 1498 1498 1498 1498 1498 1498 1498 1498 1498
1543 1541 1539 1538 1536 1535 1533 1532 1531 1530 1529 1527 1526 1525 1524 1523 1522 1520 1519 1517 1516 1515 1513 1511 1510 1508 1507 1505 1504 1502 1502 1501 1500 1499 1498 1497 1497 1496 1496 1496 1495 1495 1494 1494 1493 1493 1493 1494 1494 1494 1495 1495 1495 1494 1494 1494 1496 1497 1497 1496 1495 1494 1494 1493 1493 1493 1494 1494 1495 1496 1496 1496 1497 1498 1497 1495 1495 1496 1496 1497 1497 1497 1497 1497 1498 1498 1499 1499
1543 1541 1539 1537 1536 1534 1533 1531 1530 1529 1527 1526 1525 1524 1524 1523 1521 1520 1518 1517 1515 1514 1513 1511 1510 1508 1507 1506 1504 1503 1502 1502 1501 1500 1498 1497 1496 1496 1496 1495 1495 1495 1495 1495 1494 1494 1494 1494 1495 1495 1495 1495 1495 1495 1494 1495 1496 1496 1496 1495 1495 1494 1493 1493 1493 1493 1494 1494 1494 1495 1496 1496 1497 1498 1497 1495 1494 1495 1496 1496 1497 1497 1497 1497 1498 1498 1499 1499
1542 1540 1538 1537 1535 1534 1532 1530 1529 1528 1527 1526 1524 1523 1523 1522 1521 1519 1518 1517 1515 1514 1512 1511 1510 1508 1507 1506 1505 1504 1503 1502 1501 1499 1498 1497 1496 1496 1496 1495 1495 1495 1495 1495 1495 1495 1495 1495 1495 1495 1495 1496 1495 1495 1495 1495 1495 1495 1495 1494 1494 1493 1493 1493 1493 1493 1493 1493 1493 1494 1495 1496 1497 1498 1497 1494 1494 1495 1495 1496 1496 1497 1497 1497 1498 1499 1499 1499
1542 1540 1538 1536 1534 1532 1531 1529 1528 1527 1526 1525 1523 1522 1522 1521 1520 1519 1518 1516 1515 1514 1512 1511 1510 1509 1508 1506 1506 1505 1504 1502 1501 1499 1498 1497 1496 1496 1496 1496 1495 1495 1495 1496 1496 1496 1495 1495 1495 1495 1496 1496 1495 1496 1495 1495 1494 1494 1494 1495 1494 1493 1493 1493 1494 1494 1494 1494 1493 1495 1497 1496 1496 1497 1495 1494 1495 1495 1495 1495 1495 1496 1497 1497 1498 1498 1499 1499
1541 1539 1537 1535 1533 1531 1530 1529 1527 1526 1525 1524 1522 1521 1521 1521 1520 1519 1518 1516 1515 1514 1512 1511 1510 1509 1507 1506 1506 1505 1504 1503 1501 1500 1498 1497 1497 1496 1496 1496 1495 1495 1495 1496 1496 1496 1496 1496 1496 1495 1495 1495 1496 1496 1495 1494 1493 1493 1494 1495 1495 1495 1494 1494 1494 1494 1494 1494 1493 1496 1501 1497 1494 1495 1494 1495 1495 1494 1495 1494 1495 1496 1496 1497 1497 1497 1498 1499
1541 1539 1537 1535 1532 1531 1530 1528 1527 1526 1525 1523 1522 1521 1521 1521 1520 1519 1517 1516 1514 1513 1512 1511 1510 1509 1508 1507 1506 1505 1504 1503 1501 1499 1498 1497 1496 1496 1496 1495 1495 1495 1495 1496 1496 1497 1496 1496 1496 1495 1496 1496 1496 1496 1496 1495 1494 1494 1495 1497 1501 1499 1496 1494 1495 1494 1493 1494 1492 1496 1503 1499 1494 1494 1494 1495 1495 1494 1495 1494 1495 1495 1496 1497 1497 1497 1497 1498
1540 1538 1536 1534 1532 1531 1529 1528 1527 1526 1525 1523 1522 1522 1522 1521 1520 1519 1517 1515 1514 1513 1512 1511 1510 1509 1508 1507 1507 1506 1504 1502 1501 1499 1498 1497 1496 1495 1495 1495 1495 1495 1495 1496 1497 1497 1497 1497 1497 1496 1496 1496 1496 1496 1497 1496 1496 1497 1496 1501 1507 1504 1499 1496 1496 1497 1495 1495 1493 1496 1502 1499 1495 1495 1495 1496 1495 1495 1495 1495 1495 1495 1496 1497 1497 1497 1497 1498
1540 1538 1536 1534 1532 1531 1530 1528 1527 1526 1525 1524 1523 1523 1522 1522 1521 1519 1517 1515 1513 1513 1512 1511 1509 1508 1509 1509 1508 1505 1504 1502 1501 1500 1498 1497 1496 1495 1495 1494 1494 1494 1495 1496 1496 1497 1497 1497 1497 1498 1497 1497 1498 1498 1499 1500 1500 1502 1500 1503 1508 1507 1504 1500 1498 1500 1499 1497 1496 1498 1502 1500 1497 1495 1495 1496 1496 1496 1496 1495 1495 1495 1496 1496 1497 1498 1497 1498
1541 1538 1536 1534 1533 1532 1530 1529 1528 1527 1526 1525 1524 1524 1523 1522 1521 1520 1518 1515 1515 1514 1513 1511 1509 1508 1510 1509 1508 1506 1505 1504 1502 1500 1499 1498 1497 1496 1495 1494 1494 1494 1495 1496 1497 1497 1497 1498 1499 1499 1499 1500 1501 1500 1501 1506 1505 1505 1504 1505 1510 1510 1508 1505 1501 1501 1501 1501 1501 1502 1504 1504 1501 1497 1494 1495 1496 1497 1496 1496 1495 1495 1495 1496 1496 1497 1498 1498
1541 1539 1537 1535 1534 1533 1531 1530 1529 1528 1526 1525 1524 1524 1524 1523 1522 1521 1519 1517 1515 1513 1513 1512 1510 1512 1513 1511 1510 1509 1508 1506 1503 1501 1500 1499 1497 1496 1495 1494 1494 1494 1495 1496 1497 1498 1498 1499 1499 1501 1502 1502 1504 1502 1504 1510 1510 1509 1508 1508 1512 1513 1510 1509 1506 1504 1503 1503 1504 1504 1504 1505 1504 1500 1495 1494 1495 1496 1497 1497 1495 1494 1494 1494 1495 1496 1497 1497
1542 1540 1538 1536 1535 1534 1533 1531 1530 1529 1527 1526 1525 1525 1524 1523 1522 1521 1520 1518 1515 1515 1518 1518 1516 1520 1521 1515 1513 1512 1510 1507 1505 1503 1501 1499 1498 1497 1496 1495 1495 1494 1495 1497 1499 1499 1499 1500 1502 1504 1507 1508 1509 1509 1509 1512 1512 1512 1512 1513 1515 1513 1511 1511 1508 1506 1506 1505 1505 1505 1506 1507 1506 1503 1499 1496 1495 1495 1496 1496 1495 1494 1493 1493 1494 1494 1495 1496
1542 1540 1539 1537 1536 1535 1534 1533 1531 1530 1528 1527 1525 1524 1525 1525 1524 1523 1522 1519 1519 1522 1525 1524 1522 1523 1522 1518 1515 1513 1510 1508 1506 1504 1502 1500 1499 1498 1497 1496 1496 1495 1497 1500 1501 1501 1501 1504 1509 1511 1512 1512 1512 1512 1511 1512 1512 1512 1513 1515 1517 1515 1512 1511 1508 1507 1507 1506 1506 1506 1507 1508 1507 1504 1501 1498 1497 1496 1496 1496 1496 1495 1494 1494 1494 1494 1494 1495
1543 1541 1540 1538 1537 1536 1535 1534 1533 1531 1530 1529 1526 1525 1528 1530 1529 1529 1527 1524 1525 1526 1526 1525 1524 1523 1521 1519 1516 1514 1511 1509 1506 1505 1503 1502 1500 1499 1498 1498 1497 1499 1502 1502 1502 1502 1503 1508 1514 1514 1513 1512 1512 1512 1511 1511 1512 1512 1514 1515 1516 1516 1513 1510 1509 1508 1507 1508 1507 1506 1506 1506 1506 1505 1502 1499 1498 1498 1498 1498 1498 1497 1496 1495 1495 1495 1495 1495
1544 1542 1540 1540 1539 1537 1537 1536 1535 1533 1533 1532 1528 1528 1532 1533 1533 1533 1531 1529 1528 1527 1526 1525 1524 1523 1521 1519 1517 1515 1514 1510 1507 1506 1504 1503 1501 1501 1501 1501 1501 1503 1504 1503 1503 1505 1507 1511 1514 1513 1512 1512 1512 1512 1511 1511 1513 1514 1515 1516 1516 1518 1515 1510 1509 1509 1509 1509 1508 1507 1508 1507 1505 1504 1501 1500 1500 1500 1500 1500 1500 1499 1498 1497 1496 1496 1495 1494
1545 1543 1541 1541 1540 1539 1538 1537 1536 1536 1535 1533 1531 1531 1534 1535 1534 1534 1533 1533 1530 1527 1527 1525 1524 1522 1520 1519 1518 1516 1514 1513 1510 1508 1507 1505 1504 1503 1504 1504 1505 1505 1505 1505 1505 1509 1512 1514 1512 1511 1511 1511 1511 1512 1511 1511 1514 1516 1516 1517 1518 1519 1517 1513 1510 1510 1510 1511 1510 1508 1508 1507 1506 1504 1501 1501 1501 1500 1500 1500 1500 1500 1499 1499 1498 1497 1497 1496
1545 1543 1542 1541 1541 1540 1539 1538 1538 1537 1536 1535 1535 1535 1535 1536 1535 1535 1534 1534 1532 1529 1528 1527 1526 1524 1522 1521 1519 1517 1516 1515 1514 1511 1510 1508 1506 1506 1506 1507 1507 1508 1510 1509 1508 1511 1515 1514 1512 1511 1510 1510 1511 1512 1512 1511 1514 1518 1517 1518 1518 1518 1517 1516 1514 1512 1510 1511 1511 1507 1505 1506 1509 1508 1503 1501 1501 1500 1499 1499 1499 1499 1500 1499 1498 1498 1498 1497
1546 1544 1543 1542 1542 1541 1540 1540 1539 1538 1538 1537 1537 1537 1537 1537 1536 1535 1535 1535 1534 1532 1529 1529 1528 1526 1525 1523 1520 1519 1517 1516 1516 1514 1512 1510 1509 1508 1508 1509 1509 1511 1513 1512 1511 1513 1515 1514 1511 1510 1510 1510 1511 1513 1515 1513 1513 1518 1519 1519 1519 1518 1517 1515 1515 1514 1512 1512 1512 1510 1509 1510 1511 1509 1505 1504 1502 1500 1500 1500 1500 1499 1499 1499 1498 1498 1497 1497
1547 1545 1544 1543 1543 1542 1541 1541 1540 1540 1539 1539 1539 1538 1538 1537 1536 1536 1536 1537 1537 1535 1532 1530 1531 1530 1527 1525 1521 1518 1518 1518 1517 1517 1514 1512 1511 1510 1511 1512 1512 1513 1514 1513 1513 1515 1516 1515 1513 1512 1511 1512 1512 1514 1517 1515 1513 1517 1519 1519 1519 1518 1516 1515 1515 1515 1514 1514 1514 1513 1515 1517 1514 1508 1507 1508 1504 1502 1502 1501 1501 1501 1500 1500 1499 1499 1498 1497
1548 1547 1546 1545 1544 1543 1542 1541 1541 1541 1540 1540 1540 1539 1539 1537 1536 1537 1535 1539 1544 1542 1539 1536 1535 1534 1531 1529 1524 1520 1524 1524 1519 1518 1516 1514 1513 1512 1513 1515 1515 1516 1515 1514 1516 1518 1518 1516 1515 1515 1513 1513 1515 1516 1518 1517 1516 1518 1518 1518 1518 1516 1515 1516 1515 1514 1515 1515 1515 1515 1517 1521 1520 1512 1509 1509 1506 1504 1504 1503 1503 1502 1502 1502 1501 1500 1499 1499
1549 1548 1547 1546 1545 1544 1543 1542 1542 1541 1541 1541 1540 1539 1539 1537 1537 1537 1536 1547 1554 1548 1545 1542 1538 1537 1535 1532 1528 1526 1530 1528 1522 1521 1519 1516 1515 1513 1515 1517 1518 1518 1517 1515 1519 1521 1520 1519 1518 1518 1516 1518 1519 1520 1520 1518 1517 1518 1517 1518 1517 1515 1516 1516 1515 1515 1516 1517 1518 1518 1517 1521 1523 1515 1510 1510 1507 1507 1508 1507 1507 1505 1505 1504 1502 1502 1501 1500
1550 1549 1548 1546 1546 1545 1544 1543 1543 1542 1542 1542 1540 1540 1539 1537 1537 1536 1539 1553 1558 1551 1549 1546 1541 1540 1538 1533 1530 1530 1531 1529 1528 1527 1522 1519 1518 1516 1517 1519 1519 1520 1519 1517 1520 1522 1521 1521 1521 1519 1520 1522 1521 1520 1520 1519 1519 1517 1517 1517 1516 1517 1518 1516 1516 1514 1516 1520 1523 1522 1520 1522 1525 1517 1511 1511 1510 1512 1513 1511 1510 1509 1508 1507 1505 1504 1502 1501
1551 1550 1549 1548 1547 1546 1545 1545 1543 1543 1542 1541 1541 1539 1539 1538 1537 1541 1553 1562 1559 1554 1552 1548 1546 1546 1543 1538 1535 1533 1533 1532 1531 1529 1524 1523 1521 1518 1519 1520 1519 1521 1521 1520 1521 1523 1522 1521 1521 1522 1523 1523 1521 1520 1520 1519 1519 1517 1516 1516 1514 1516 1517 1518 1521 1518 1521 1527 1527 1526 1524 1524 1525 1519 1513 1514 1514 1517 1516 1513 1512 1511 1510 1509 1507 1506 1504 1502
1552 1551 1550 1549 1548 1547 1546 1545 1544 1544 1542 1541 1541 1539 1539 1540 1543 1554 1566 1567 1561 1557 1554 1552 1551 1549 1547 1547 1545 1541 1538 1536 1534 1532 1529 1527 1524 1522 1522 1525 1524 1522 1523 1525 1524 1524 1523 1522 1523 1525 1525 1523 1520 1520 1519 1519 1519 1517 1517 1516 1516 1521 1520 1520 1524 1523 1527 1531 1528 1528 1527 1525 1526 1519 1512 1514 1516 1518 1518 1516 1516 1514 1512 1512 1510 1508 1505 1503
1553 1552 1551 1550 1549 1548 1547 1546 1545 1544 1543 1541 1539 1538 1539 1543 1557 1571 1572 1565 1563 1563 1561 1558 1556 1553 1552 1552 1551 1548 1545 1542 1539 1538 1538 1536 1533 1533 1536 1540 1538 1531 1531 1535 1532 1527 1525 1527 1528 1526 1525 1525 1522 1521 1519 1519 1519 1518 1518 1518 1523 1532 1532 1531 1535 1535 1535 1533 1529 1530 1529 1527 1527 1518 1512 1515 1517 1518 1519 1518 1518 1517 1516 1514 1511 1509 1506 1504
1555 1554 1552 1551 1550 1550 1548 1547 1546 1544 1543 1541 1539 1539 1542 1551 1568 1580 1577 1570 1568 1567 1565 1563 1559 1557 1556 1552 1553 1552 1549 1547 1545 1542 1542 1541 1540 1542 1543 1544 1544 1540 1539 1542 1540 1534 1528 1527 1529 1527 1526 1528 1527 1526 1525 1525 1524 1524 1524 1524 1527 1536 1540 1542 1548 1545 1539 1534 1530 1531 1530 1526 1522 1518 1517 1519 1519 1519 1518 1518 1519 1519 1517 1515 1512 1510 1506 1503
1556 1554 1554 1553 1551 1551 1549 1548 1546 1544 1543 1542 1540 1541 1548 1564 1578 1580 1577 1576 1573 1569 1567 1565 1562 1559 1557 1556 1558 1556 1552 1550 1549 1548 1546 1544 1545 1548 1547 1544 1544 1544 1543 1543 1545 1545 1539 1534 1534 1534 1532 1532 1531 1532 1532 1531 1530 1529 1529 1528 1528 1535 1539 1541 1544 1543 1538 1538 1534 1531 1529 1524 1520 1518 1519 1519 1519 1519 1518 1518 1519 1517 1515 1514 1511 1508 1505 1503
1557 1556 1555 1554 1553 1552 1550 1548 1546 1545 1544 1542 1544 1551 1562 1577 1587 1583 1578 1577 1574 1570 1568 1566 1564 1561 1559 1560 1560 1559 1556 1554 1552 1551 1551 1551 1553 1555 1554 1551 1550 1549 1546 1546 1550 1553 1550 1544 1539 1539 1538 1536 1535 1534 1534 1533 1531 1530 1530 1531 1532 1538 1539 1537 1541 1542 1540 1542 1539 1531 1526 1522 1518 1517 1517 1518 1517 1517 1517 1518 1517 1515 1514 1512 1510 1509 1507 1506
1557 1557 1556 1555 1554 1552 1550 1550 1547 1545 1545 1542 1547 1564 1576 1581 1584 1581 1578 1575 1574 1573 1569 1566 1565 1565 1565 1564 1562 1560 1558 1556 1555 1554 1555 1558 1559 1559 1558 1556 1554 1554 1552 1554 1557 1557 1553 1545 1540 1540 1539 1537 1538 1537 1535 1534 1533 1531 1533 1536 1539 1541 1540 1537 1540 1543 1543 1543 1538 1531 1527 1523 1519 1516 1516 1517 1516 1516 1518 1518 1517 1517 1515 1513 1512 1511 1510 1508
1558 1558 1557 1556 1555 1553 1551 1550 1548 1547 1546 1542 1551 1572 1583 1580 1579 1579 1577 1575 1575 1575 1571 1569 1569 1571 1572 1570 1567 1564 1560 1557 1558 1558 1558 1561 1561 1561 1561 1558 1556 1557 1557 1556 1557 1558 1558 1549 1542 1543 1541 1538 1539 1538 1536 1536 1535 1535 1538 1541 1541 1540 1539 1538 1539 1544 1550 1549 1541 1535 1533 1530 1526 1521 1517 1518 1521 1523 1522 1518 1517 1518 1516 1514 1514 1513 1512 1510
1559 1559 1558 1557 1555 1554 1553 1550 1550 1549 1545 1547 1563 1579 1582 1580 1578 1577 1577 1575 1575 1574 1574 1575 1574 1574 1575 1574 1572 1569 1565 1562 1563 1563 1563 1564 1564 1564 1564 1561 1558 1558 1558 1557 1555 1557 1559 1551 1543 1544 1544 1541 1539 1537 1538 1539 1537 1538 1541 1542 1541 1541 1542 1541 1542 1547 1552 1554 1548 1541 1538 1534 1530 1527 1523 1526 1532 1534 1529 1524 1520 1520 1520 1519 1517 1514 1512 1509
1560 1559 1558 1558 1556 1555 1554 1552 1552 1549 1545 1556 1574 1580 1580 1580 1577 1576 1577 1576 1576 1575 1576 1578 1577 1575 1576 1576 1575 1572 1570 1569 1569 1568 1567 1567 1567 1566 1565 1565 1562 1559 1557 1557 1557 1559 1560 1554 1546 1544 1544 1542 1540 1542 1547 1548 1543 1539 1541 1543 1542 1544 1546 1547 1549 1551 1552 1556 1555 1548 1542 1536 1529 1529 1531 1536 1540 1539 1536 1532 1527 1524 1524 1524 1522 1518 1514 1511
1560 1560 1559 1559 1557 1556 1555 1553 1552 1550 1553 1567 1578 1578 1579 1580 1576 1576 1577 1575 1576 1576 1576 1579 1578 1577 1577 1576 1577 1575 1573 1573 1571 1570 1570 1570 1569 1567 1566 1567 1565 1562 1558 1557 1559 1560 1561 1560 1554 1548 1544 1543 1546 1551 1555 1555 1551 1547 1547 1550 1550 1549 1549 1548 1549 1552 1554 1557 1561 1560 1554 1540 1530 1533 1537 1541 1543 1540 1538 1537 1533 1528 1525 1524 1524 1522 1518 1514
1560 1561 1561 1559 1558 1558 1556 1555 1557 1561 1568 1576 1578 1578 1580 1578 1575 1577 1576 1575 1576 1576 1576 1578 1578 1579 1579 1577 1578 1577 1575 1574 1573 1573 1573 1572 1571 1570 1569 1568 1566 1564 1560 1559 1561 1560 1560 1564 1563 1557 1552 1550 1553 1558 1559 1558 1557 1555 1555 1559 1560 1558 1556 1554 1553 1556 1559 1560 1562 1566 1561 1545 1535 1538 1541 1542 1543 1540 1538 1538 1535 1532 1527 1524 1523 1523 1521 1517
1561 1562 1562 1560 1560 1559 1557 1560 1566 1570 1573 1576 1577 1578 1579 1577 1577 1577 1576 1576 1577 1576 1577 1578 1578 1579 1580 1579 1578 1578 1577 1576 1575 1575 1574 1573 1573 1572 1570 1568 1566 1564 1562 1562 1563 1561 1562 1566 1564 1560 1559 1559 1558 1559 1559 1559 1558 1557 1558 1561 1562 1563 1564 1565 1564 1564 1567 1568 1564 1565 1564 1551 1541 1541 1541 1541 1542 1540 1538 1537 1536 1533 1530 1525 1523 1521 1521 1518
1562 1563 1563 1561 1561 1560 1559 1564 1572 1574 1575 1577 1578 1578 1578 1578 1578 1578 1577 1577 1577 1577 1578 1579 1580 1580 1580 1580 1579 1579 1578 1577 1576 1575 1575 1575 1573 1571 1570 1569 1566 1564 1563 1564 1564 1562 1564 1567 1564 1561 1561 1560 1559 1559 1559 1558 1558 1559 1560 1561 1563 1564 1564 1566 1567 1566 1568 1568 1564 1565 1564 1551 1541 1539 1540 1541 1542 1540 1538 1537 1535 1533 1531 1528 1524 1520 1518 1517
1564 1564 1564 1562 1561 1560 1561 1566 1572 1576 1578 1578 1578 1578 1578 1579 1579 1579 1579 1579 1578 1579 1579 1580 1581 1580 1580 1580 1579 1579 1578 1578 1578 1576 1575 1575 1573 1570 1570 1569 1567 1567 1565 1566 1566 1563 1565 1570 1568 1564 1561 1557 1556 1559 1559 1558 1561 1563 1563 1564 1565 1564 1564 1565 1565 1566 1567 1563 1562 1565 1559 1543 1537 1540 1540 1541 1541 1539 1538 1537 1535 1533 1531 1529 1526 1521 1518 1515
1565 1565 1565 1564 1562 1561 1564 1568 1571 1575 1579 1579 1579 1580 1580 1579 1580 1580 1580 1580 1580 1580 1581 1581 1581 1581 1581 1580 1579 1579 1579 1579 1579 1577 1576 1576 1573 1571 1570 1569 1568 1568 1567 1568 1567 1563 1566 1572 1570 1566 1566 1564 1562 1564 1564 1564 1565 1566 1565 1566 1566 1565 1565 1566 1566 1568 1569 1565 1563 1564 1554 1539 1538 1542 1543 1542 1541 1538 1536 1535 1534 1533 1531 1529 1527 1523 1520 1516
1565 1566 1566 1566 1565 1564 1567 1570 1571 1573 1577 1578 1579 1581 1582 1581 1581 1581 1581 1581 1581 1581 1582 1582 1582 1582 1582 1581 1581 1581 1579 1579 1580 1578 1577 1576 1574 1572 1571 1570 1569 1568 1568 1568 1566 1566 1570 1574 1573 1570 1569 1569 1568 1568 1568 1568 1569 1568 1566 1566 1566 1565 1565 1566 1568 1570 1569 1568 1566 1560 1551 1545 1543 1545 1545 1543 1540 1538 1536 1534 1533 1531 1530 1528 1526 1524 1521 1518
1566 1568 1570 1569 1568 1568 1570 1572 1572 1573 1575 1576 1578 1581 1583 1582 1582 1582 1582 1582 1583 1582 1583 1583 1583 1583 1583 1583 1583 1583 1581 1580 1580 1579 1578 1577 1575 1574 1571 1570 1569 1568 1569 1568 1567 1568 1570 1573 1576 1576 1570 1569 1570 1569 1567 1568 1570 1569 1567 1566 1565 1566 1566 1567 1570 1568 1565 1569 1566 1552 1548 1551 1548 1546 1548 1544 1540 1539 1537 1534 1533 1531 1529 1527 1525 1523 1521 1519
1567 1569 1572 1571 1571 1572 1573 1574 1574 1575 1576 1577 1580 1582 1582 1583 1584 1584 1583 1583 1583 1583 1583 1584 1585 1585 1585 1584 1584 1583 1582 1581 1580 1579 1578 1577 1577 1576 1572 1569 1569 1569 1569 1569 1569 1571 1572 1572 1576 1577 1572 1571 1572 1569 1567 1568 1568 1567 1566 1565 1563 1564 1565 1566 1566 1563 1562 1566 1560 1547 1547 1551 1548 1547 1549 1544 1540 1539 1537 1536 1534 1531 1528 1526 1524 1522 1521 1519
1568 1570 1572 1572 1573 1574 1576 1576 1576 1577 1578 1579 1581 1583 1584 1584 1585 1585 1585 1584 1584 1584 1584 1584 1586 1585 1585 1584 1584 1584 1583 1582 1581 1580 1579 1579 1579 1579 1575 1572 1570 1569 1569 1571 1571 1572 1572 1572 1574 1575 1574 1572 1570 1567 1567 1567 1566 1565 1563 1562 1562 1562 1563 1563 1561 1560 1560 1560 1555 1550 1552 1551 1548 1548 1548 1544 1540 1539 1538 1536 1534 1531 1528 1525 1524 1523 1521 1519
1568 1570 1571 1572 1574 1576 1576 1577 1578 1578 1580 1581 1582 1584 1585 1586 1586 1587 1586 1585 1585 1585 1584 1584 1586 1585 1584 1584 1584 1584 1582 1582 1583 1581 1580 1580 1580 1579 1578 1575 1572 1570 1571 1573 1574 1573 1573 1573 1572 1573 1574 1571 1567 1565 1565 1565 1565 1565 1561 1558 1560 1560 1560 1560 1559 1558 1558 1556 1553 1554 1555 1551 1547 1546 1546 1544 1540 1538 1537 1536 1534 1532 1529 1526 1524 1523 1520 1518
1569 1569 1570 1571 1574 1577 1577 1578 1579 1579 1581 1582 1584 1585 1586 1587 1587 1587 1585 1584 1584 1584 1584 1584 1585 1584 1584 1584 1584 1583 1582 1581 1582 1580 1579 1580 1579 1578 1577 1576 1574 1574 1574 1574 1574 1574 1574 1573 1572 1572 1573 1571 1567 1564 1563 1563 1564 1564 1560 1555 1554 1554 1553 1554 1553 1552 1552 1551 1550 1552 1552 1549 1546 1545 1545 1544 1540 1537 1536 1537 1535 1531 1528 1527 1525 1522 1520 1517
1569 1570 1570 1571 1574 1578 1578 1578 1580 1580 1581 1583 1584 1585 1586 1586 1586 1586 1585 1584 1583 1583 1583 1584 1584 1584 1584 1584 1583 1582 1581 1581 1580 1579 1578 1577 1576 1575 1576 1575 1575 1576 1576 1576 1575 1574 1574 1574 1573 1573 1572 1569 1565 1562 1563 1564 1560 1557 1555 1551 1549 1550 1550 1550 1549 1548 1548 1548 1548 1549 1548 1546 1545 1544 1543 1542 1540 1537 1535 1536 1535 1531 1528 1527 1525 1522 1519 1517